Location: Newark
(44.4156°N, 12.1972°E)
Time: 20:55:48
(UTC+00:00)

STARLINK-1083 - Pass Details

Date: 31 January 2020
Orbit: 349 x 351 km, 53.0° (Epoch: 18 February)

Event Time Altitude Azimuth Distance (km) Brightness Sun altitude
Rises 18:40:56 0° 292° (WNW) 2,165 7.8 -25.6°
Reaches altitude 10° 18:43:19 10° 272° (W) 1,318 6.6 -26.0°
Enters shadow 18:44:35 16° 249° (WSW) 1,015 5.7 -26.2°
